Location: Unspecified
(0.0000°N, 0.0000°E)
Time: 07:20:02
(UTC+00:00)

Courier 1B Rocket - All Passes

Search period start: 21 April 2014 00:00
Search period end: 01 May 2014 00:00
Orbit: 921 x 1202 km, 28.2° (Epoch: 19 April)

Date Brightness Start Highest point End Pass type
(mag) Time Alt. Az. Time Alt. Az. Time Alt. Az.
21 Apr - 00:43:01 10° SSW 00:49:28 28° SSE 00:55:44 10° E night (unlit)
21 Apr - 02:35:48 10° WSW 02:43:34 84° SSE 02:50:52 10° ENE visible
21 Apr - 04:31:02 10° W 04:37:21 30° NNW 04:43:19 10° NNE visible
21 Apr - 12:14:23 10° NNW 12:18:23 17° NNE 12:22:25 10° ENE daylight
21 Apr - 14:05:47 10° NW 14:12:00 66° NNE 14:18:35 10° ESE daylight
21 Apr - 15:59:46 10° W 16:05:35 34° SSW 16:11:47 10° SE daylight
21 Apr - 17:58:06 10° SW 18:00:08 11° SSW 18:02:12 10° S daylight
21 Apr - 23:42:36 10° SSW 23:47:58 20° SSE 23:53:17 10° ESE night (unlit)
22 Apr - 01:34:39 10° SW 01:42:20 58° SSE 01:49:40 10° ENE visible
22 Apr - 03:28:57 10° W 03:36:10 45° NNW 03:42:57 10° NE visible
22 Apr - 05:27:03 10° NW 05:30:20 13° NNW 05:33:33 10° N visible
22 Apr - 11:15:17 10° N 11:17:09 11° NNE 11:19:01 10° NE daylight
22 Apr - 13:05:15 10° NW 13:11:05 42° NNE 13:17:06 10° E daylight
22 Apr - 14:58:23 10° WNW 15:04:31 51° SSW 15:11:02 10° SE daylight
22 Apr - 16:54:48 10° WSW 16:58:38 16° SSW 17:02:36 10° SSE daylight
22 Apr - 22:42:36 10° S 22:46:22 14° SSE 22:50:07 10° SE night (unlit)
23 Apr - 00:33:46 10° SW 00:41:01 40° SSE 00:48:07 10° E night (unlit)
23 Apr - 02:27:15 10° WSW 02:34:58 66° NNW 02:42:18 10° NE visible
23 Apr - 04:23:41 10° WNW 04:28:58 20° NNW 04:34:01 10° NNE visible
23 Apr - 12:04:56 10° NNW 12:10:06 27° NNE 12:15:19 10° E daylight
23 Apr - 13:57:18 10° WNW 14:03:33 79° SSW 14:10:06 10° SE daylight
23 Apr - 15:52:27 10° WSW 15:57:18 22° SSW 16:02:24 10° SSE daylight
23 Apr - 23:33:08 10° SSW 23:39:38 28° SSE 23:46:07 10° E night (unlit)
24 Apr - 01:25:51 10° WSW 01:33:44 86° SSE 01:41:21 10° ENE visible
24 Apr - 03:21:06 10° W 03:27:39 30° NNW 03:33:55 10° NNE visible
24 Apr - 11:04:55 10° NNW 11:09:01 18° NNE 11:13:06 10° ENE daylight
24 Apr - 12:56:29 10° NW 13:02:39 68° NNE 13:08:59 10° ESE daylight
24 Apr - 14:50:37 10° W 14:56:09 32° SSW 15:01:57 10° SE daylight
24 Apr - 22:32:48 10° SSW 22:38:10 20° SSE 22:43:36 10° ESE night (unlit)
25 Apr - 00:24:46 10° SW 00:32:28 60° SSE 00:40:04 10° ENE night (unlit)
25 Apr - 02:19:02 10° W 02:26:23 44° NNW 02:33:27 10° NE visible
25 Apr - 04:17:02 10° NW 04:20:43 14° NNW 04:24:18 10° N visible
25 Apr - 10:05:29 10° N 10:07:46 12° NNE 10:10:03 10° NE daylight
25 Apr - 11:55:52 10° NW 12:01:45 43° NNE 12:07:39 10° E daylight
25 Apr - 13:49:10 10° WNW 13:55:08 48° SSW 14:01:20 10° SE daylight
25 Apr - 15:45:53 10° SW 15:49:09 14° SSW 15:52:31 10° S daylight
25 Apr - 21:32:56 10° S 21:36:36 14° SSE 21:40:19 10° SE night (unlit)
25 Apr - 23:23:56 10° SW 23:31:10 41° SSE 23:38:25 10° E night (unlit)
26 Apr - 01:17:21 10° WSW 01:25:07 65° NNW 01:32:42 10° NE visible
26 Apr - 03:13:45 10° WNW 03:19:15 21° NNW 03:24:35 10° NNE visible
26 Apr - 10:55:27 10° NNW 11:00:46 28° NNE 11:05:59 10° E daylight
26 Apr - 12:48:00 10° WNW 12:54:13 76° SSW 13:00:32 10° SE daylight
26 Apr - 14:43:21 10° WSW 14:47:53 20° SSW 14:52:34 10° SSE daylight
26 Apr - 22:23:23 10° SSW 22:29:48 29° SSE 22:36:21 10° E night (unlit)
27 Apr - 00:16:01 10° WSW 00:23:51 88° SSE 00:31:40 10° ENE night (unlit)
27 Apr - 02:11:12 10° W 02:17:52 30° NNW 02:24:21 10° NNE visible
27 Apr - 09:55:16 10° NNW 09:59:39 19° NNE 10:03:56 10° ENE daylight
27 Apr - 11:47:04 10° NW 11:53:20 70° NNE 11:59:33 10° ESE daylight
27 Apr - 13:41:25 10° W 13:46:47 30° SSW 13:52:17 10° SSE daylight
27 Apr - 21:23:10 10° SSW 21:28:23 20° SSE 21:33:45 10° ESE night (unlit)
27 Apr - 23:14:59 10° SW 23:22:35 61° SSE 23:30:18 10° ENE night (unlit)
28 Apr - 01:09:11 10° W 01:16:32 44° NNW 01:23:48 10° NE visible
28 Apr - 03:07:04 10° NW 03:11:00 15° NNW 03:14:53 10° N visible
28 Apr - 08:55:29 10° N 08:58:22 13° NNE 09:01:12 10° NE daylight
28 Apr - 10:46:21 10° NW 10:52:25 45° NNE 10:58:19 10° E daylight
28 Apr - 12:39:51 10° WNW 12:45:48 46° SSW 12:51:48 10° SE daylight
28 Apr - 14:36:58 10° SW 14:39:45 13° SSW 14:42:34 10° S daylight
28 Apr - 20:23:30 10° S 20:26:53 14° SSE 20:30:21 10° SE visible
28 Apr - 22:14:15 10° SW 22:21:19 42° SSE 22:28:36 10° E night (unlit)
29 Apr - 00:07:34 10° WSW 00:15:14 64° NNW 00:22:58 10° NE night (unlit)
29 Apr - 02:03:53 10° WNW 02:09:28 21° NNW 02:14:59 10° NNE visible
29 Apr - 09:45:47 10° NNW 09:51:24 30° NNE 09:56:47 10° E daylight
29 Apr - 11:38:34 10° WNW 11:44:54 73° SSW 11:51:07 10° SE daylight
29 Apr - 13:34:11 10° WSW 13:38:31 19° SSW 13:42:53 10° SSE daylight
29 Apr - 21:13:48 10° SSW 21:20:01 29° SSE 21:26:28 10° E visible
29 Apr - 23:06:18 10° WSW 23:13:58 89° SSE 23:21:50 10° ENE night (unlit)
30 Apr - 01:01:25 10° W 01:08:02 30° NNW 01:14:38 10° NNE night (unlit)
30 Apr - 03:02:27 10° NNW 03:02:57 10° NNW 03:03:26 10° NNW visible
30 Apr - 08:45:26 10° NNW 08:50:14 20° NNE 08:54:51 10° ENE daylight
30 Apr - 10:37:32 10° NW 10:44:00 73° NNE 10:50:14 10° ESE daylight
30 Apr - 12:32:06 10° W 12:37:26 29° SSW 12:42:46 10° SSE daylight
30 Apr - 20:13:43 10° SSW 20:18:40 20° SSE 20:23:49 10° ESE visible
30 Apr - 22:05:22 10° SW 22:12:44 62° SSE 22:20:25 10° ENE night (unlit)
30 Apr - 23:59:27 10° W 00:00:15 13° W 00:00:00 12° W night (unlit)
